User: anonymous   Login
Location: Mason Neck State Park
(38.6428°N, 77.1981°W)
Time: 00:42:54
(UTC-05:00)
Language:

Cosmos 1400 Rocket - Orbit

View from above orbital plane
View from above orbital plane
View from above satellite
View from above satellite

Ground track
Ground track

The orbit data is extracted from the following two-line orbital elements,

1 13403U 82079B   18022.61342551 +.00000056 +00000-0 +22074-5 0  9998
2 13403 081.1693 017.9838 0032747 274.3532 085.3950 15.06770033929547
Epoch (UTC): 22 January 2018 14:43:19
Eccentricity: 0.0032747
inclination: 81.1693°
perigee height: 523 km
apogee height: 569 km
right ascension of ascending node: 17.9838°
argument of perigee: 274.3532°
revolutions per day: 15.06770033
mean anomaly at epoch: 85.3950°
orbit number at epoch: 92954

The dashed part of the orbit path shows where the satellite is in the earth's shadow,  

DLR